Regional Weather Roundup
Issued by NWS Glasgow, MT

Home | Current Version | Previous Version | Text Only | Print | Product List | Glossary On
Versions: 1 2 3 4 5 6 7 8 9 10 11 12 13 14 15 16 17 18 19 20 21 22 23 24 25 26 27
000
ASUS45 KGGW 282215
RWRGGW
HOURLY REGIONAL WEATHER ROUNDUP FOR NORTHEAST MONTANA
NATIONAL WEATHER SERVICE GLASGOW MONTANA
400 PM MDT SUN MAY 28 2017

NOTE: "FAIR" INDICATES FEW OR NO CLOUDS BELOW 12,000 FEET WITH NO
SIGNIFICANT WEATHER AND/OR OBSTRUCTIONS TO VISISBILITY.

NORTHEAST MONTANA


CITY           SKY/WX    TMP DP  RH WIND       PRES   REMARKS
GLASGOW        SUNNY     74  27  17 NW23G37   30.08S
PLENTYWOOD       N/A     68  30  24 N23G37      N/A
WOLF POINT     MOSUNNY   75  31  19 NW21G36   30.04F
JORDAN           N/A     76  28  17 N23G37    30.09R
WINNETT          N/A     69  44  40 W15G31      N/A
SIDNEY         MOSUNNY   73  31  21 N24G32    30.00S
GLENDIVE       MOSUNNY   73  31  21 N24G35    30.03R
MALTA            N/A     73  28  18 N15G23      N/A
SCOBEY           N/A     66  32  28 NW22G33   30.04
OPHEIM           N/A     63  28  27 N21       29.92

FORT PECK REPORTS


CITY           SKY/WX    TMP DP  RH WIND       PRES   REMARKS
FORT PECK        N/A     72  32  23 NW26G35     N/A
THE PINES        N/A     75  25  15 S6G15       N/A

SOUTHEAST MONTANA


CITY           SKY/WX    TMP DP  RH WIND       PRES   REMARKS
BILLINGS       CLOUDY    66  42  41 NE23G31   30.19R THUNDER
MILES CITY     MOSUNNY   77  29  17 N26G32    30.05S
BAKER          SUNNY     74  31  20 NW30G39   30.02S
LIVINGSTON     MOSUNNY   64  46  52 E17       30.23F

CENTRAL MONTANA


CITY           SKY/WX    TMP DP  RH WIND       PRES   REMARKS
HAVRE          MOSUNNY   76  36  23 N17G26    30.17S
LEWISTOWN      PTSUNNY   67  41  38 NW14G21   30.23F
GREAT FALLS    CLOUDY    73  42  32 NE17G23   30.22S
CUT BANK       SUNNY     72  40  31 N12       30.23S
HELENA         MOSUNNY   72  38  29 NW13      30.21F
BUTTE          MOSUNNY   71  34  25 VRB6      30.25F
BOZEMAN        MOSUNNY   74  37  26 CALM      30.20F

WESTERN MONTANA


CITY           SKY/WX    TMP DP  RH WIND       PRES   REMARKS
MISSOULA       SUNNY     80  37  21 NW8       30.16F
KALISPELL      NOT AVBL

NORTH DAKOTA


CITY           SKY/WX    TMP DP  RH WIND       PRES   REMARKS
WILLISTON      PTSUNNY   70  33  25 NW25G33   29.99S
DICKINSON      SUNNY     70  28  21 NW25G40   29.94R
MINOT          CLOUDY    66  39  37 NW28      29.88S
BISMARCK       MOSUNNY   73  34  23 NW23G45   29.86R

SOUTHERN SASKATCHEWAN


CITY           SKY/WX    TMP DP  RH WIND       PRES   REMARKS
REGINA         PTSUNNY   63  36  36 NW35G46   30.01S
MOOSE JAW      PTSUNNY   64  36  34 NW25G33   30.04S
ESTEVAN        PTSUNNY   59  39  47 N35G40    29.95S
SWIFT CURRENT  SUNNY     68  25  19 N30G36    30.10F





USA.gov is the U.S. government's official web portal to all federal, state and local government web resources and services.